Location: Bambrugge
(50.9212°N, 3.9299°E)
Time: 14:19:55
(UTC+00:00)

Cosmos 2292 - Pass Details

Date: 23 May 2024
Orbit: 393 x 1650 km, 83.0° (Epoch: 16 June)

Event Time Altitude Azimuth Distance (km) Brightness Sun altitude
Rises 02:36:30 0° 347° (NNW) 2,313 8.6 -8.7°
Reaches altitude 10° 02:38:25 10° 343° (NNW) 1,473 7.5 -8.5°
Maximum altitude 02:41:27 58° 263° (W) 516 4.4 -8.2°
Drops below altitude 10° 02:44:59 10° 184° (S) 1,712 6.9 -7.8°
Enters shadow 02:46:47 - 181° (S) 2,491 7.7 -7.6°
